Philadelphia, PA

4:26 PM EDT on July 23, 2016 (GMT -0400)
Northeast Philadelphia

Weather History for KPNE - January, 2013

Change the Weather History Date:

Tuesday, January 1, 2013

  Actual Average Record
Temperature  
Mean Temperature 36 °F -  
Max Temperature 42 °F 40 °F 64 °F (2005)
Min Temperature 30 °F 27 °F 14 °F (1997)
Degree Days  
Heating Degree Days 29    
Moisture  
Dew Point 25 °F    
Average Humidity 61    
Maximum Humidity 68    
Minimum Humidity 53    
Precipitation  
Precipitation 0.00 in - - ()
Sea Level Pressure  
Sea Level Pressure 29.96 in    
Wind  
Wind Speed 10 mph (WNW)    
Max Wind Speed 13 mph    
Max Gust Speed 20 mph    
Visibility 10 miles    
Events      
Averages and records for this station are not official NWS values.
T = Trace of Precipitation, MM = Missing Value Source: NWS Daily Summary

Daily Weather History Graph

Daily Weather History Graph

Search for Another Location

Airport or City:

Trip Planner

Search our weather history database for the weather conditions in past years. The results will help you decide how hot, cold, wet, or windy it might be!

Date:

Astronomy

Jan. 01, 2013 Rise Set
Actual Time 7:22 AM EST 4:45 PM EST
Civil Twilight 6:51 AM EST 5:16 PM EST
Nautical Twilight 6:17 AM EST 5:49 PM EST
Astronomical Twilight 5:44 AM EST 6:22 PM EST
Moon 9:14 PM EST (1/1) 9:33 AM EST (1/1)
Length of Visible Light 10h 24m
Length of Day
9h 23m
Waning Gibbous, 83% of the Moon is Illuminated
Jan 1
Waning Gibbous
Jan 4
Last Quarter
Jan 11
New
Jan 18
First Quarter
Jan 26
Full

Hourly Weather History & Observations

Time (EST) Temp. Windchill Dew Point Humidity Pressure Visibility Wind Dir Wind Speed Gust Speed Precip Events Conditions
12:54 AM 42.8 °F 37.0 °F 26.6 °F 53% 29.94 in 10.0 mi West 10.4 mph - N/A   Overcast
1:54 AM 42.8 °F 37.0 °F 26.6 °F 53% 29.94 in 10.0 mi WSW 10.4 mph - N/A   Overcast
2:54 AM 42.1 °F 36.6 °F 27.0 °F 55% 29.95 in 10.0 mi WSW 9.2 mph - N/A   Overcast
3:54 AM 41.0 °F 34.3 °F 28.0 °F 60% 29.96 in 10.0 mi West 11.5 mph - N/A   Overcast
4:54 AM 39.9 °F 34.5 °F 28.0 °F 63% 29.93 in 10.0 mi West 8.1 mph - N/A   Scattered Clouds
5:54 AM 39.2 °F 32.5 °F 28.4 °F 65% 29.95 in 10.0 mi West 10.4 mph - N/A   Mostly Cloudy
6:54 AM 37.9 °F 34.4 °F 28.0 °F 68% 29.96 in 10.0 mi WNW 4.6 mph - N/A   Clear
7:54 AM 39.0 °F 33.4 °F 28.0 °F 65% 29.96 in 10.0 mi West 8.1 mph - N/A   Overcast
8:54 AM 39.0 °F 34.0 °F 28.0 °F 65% 29.96 in 10.0 mi West 6.9 mph - N/A   Overcast
9:54 AM 39.0 °F 33.4 °F 27.0 °F 62% 29.96 in 10.0 mi West 8.1 mph - N/A   Overcast
10:54 AM 39.9 °F 33.4 °F 28.0 °F 63% 29.97 in 10.0 mi West 10.4 mph - N/A   Overcast
11:54 AM 39.9 °F 33.4 °F 28.0 °F 63% 29.95 in 10.0 mi West 10.4 mph - N/A   Overcast
12:54 PM 39.2 °F 31.6 °F 28.4 °F 65% 29.92 in 10.0 mi West 12.7 mph - N/A   Overcast
1:54 PM 39.9 °F 33.9 °F 27.0 °F 60% 29.88 in 10.0 mi West 9.2 mph 19.6 mph N/A   Mostly Cloudy
2:54 PM 39.9 °F 33.4 °F 27.0 °F 60% 29.90 in 10.0 mi WNW 10.4 mph - N/A   Clear
3:54 PM 39.2 °F 33.0 °F 26.6 °F 61% 29.93 in 10.0 mi WNW 9.2 mph - N/A   Mostly Cloudy
4:54 PM 39.0 °F 31.4 °F 26.1 °F 60% 29.93 in 10.0 mi WNW 12.7 mph - N/A   Mostly Cloudy
5:54 PM 37.0 °F 29.8 °F 27.0 °F 67% 29.96 in 10.0 mi NW 10.4 mph - N/A   Overcast
6:54 PM 37.0 °F 30.4 °F 24.1 °F 59% 29.97 in 10.0 mi WNW 9.2 mph - N/A   Partly Cloudy
7:54 PM 35.1 °F 29.3 °F 23.0 °F 61% 30.01 in 10.0 mi North 6.9 mph - N/A   Clear
8:54 PM 33.1 °F 25.5 °F 19.9 °F 59% 30.01 in 10.0 mi NNW 9.2 mph - N/A   Clear
9:54 PM 32.0 °F 24.8 °F 19.0 °F 59% 30.01 in 10.0 mi North 8.1 mph - N/A   Overcast
10:54 PM 30.9 °F 23.5 °F 17.1 °F 57% 30.04 in 10.0 mi North 8.1 mph - N/A   Partly Cloudy
11:54 PM 30.0 °F 20.0 °F 15.1 °F 54% 30.04 in 10.0 mi North 12.7 mph - N/A   Clear